Location: Guadanolo
(41.9167°N, 12.9333°E)
Time: 11:35:41
(UTC+00:00)

COSMO-SKYMED 1 - Pass Details

Date: 16 September 2019
Orbit: 621 x 623 km, 97.9° (Epoch: 16 October)

Event Time Altitude Azimuth Distance (km) Brightness Sun altitude
Rises 17:32:37 0° 8° (N) 2,912 6.0 -3.8°
Reaches altitude 10° 17:34:50 10° 5° (N) 2,000 5.2 -4.2°
Maximum altitude 17:39:06 59° 286° (WNW) 720 3.3 -5.0°
Drops below altitude 10° 17:43:21 10° 207° (SSW) 1,984 5.4 -5.7°
Sets 17:45:33 0° 204° (SSW) 2,886 6.2 -6.1°
